Location: Lane
(33.5226°N, 79.8788°W)
Time: 20:34:07
(UTC+00:00)

Vanguard 2 Rocket - Pass Details

Date: 04 October 2022
Orbit: 555 x 3321 km, 32.9° (Epoch: 28 November)

Event Time Altitude Azimuth Distance (km) Brightness Sun altitude
Rises 02:41:03 0° 234° (SW) 7,229 11.7 -45.0°
Reaches altitude 10° 02:46:19 10° 231° (SW) 6,042 11.2 -45.9°
Enters shadow 02:57:06 39° 215° (SW) 3,584 9.7 -47.7°
